Weather History for KPSM - April, 2014

Change the Weather History Date:

Saturday, April 12, 2014

  Actual Average Record
Temperature  
Mean Temperature 56 °F -  
Max Temperature 68 °F 53 °F 77 °F (1977)
Min Temperature 43 °F 34 °F 13 °F (1976)
Degree Days  
Heating Degree Days 10    
Growing Degree Days 6 (Base 50)    
Moisture  
Dew Point 37 °F    
Average Humidity 63    
Maximum Humidity 100    
Minimum Humidity 20    
Precipitation  
Precipitation 0.19 in - - ()
Sea Level Pressure  
Sea Level Pressure 30.08 in    
Wind  
Wind Speed 5 mph (West)    
Max Wind Speed 20 mph    
Max Gust Speed 29 mph    
Visibility 10 miles    
Events Rain    
Averages and records for this station are not official NWS values.
T = Trace of Precipitation, MM = Missing Value Source: NWS Daily Summary

Daily Weather History Graph

Daily Weather History Graph

Search for Another Location

Airport or City:

Trip Planner

Search our weather history database for the weather conditions in past years. The results will help you decide how hot, cold, wet, or windy it might be!

Date:

Astronomy

Apr. 12, 2014 Rise Set
Actual Time 6:06 AM EDT 7:22 PM EDT
Civil Twilight 5:37 AM EDT 7:51 PM EDT
Nautical Twilight 5:01 AM EDT 8:27 PM EDT
Astronomical Twilight 4:24 AM EDT 9:04 PM EDT
Moon 4:54 PM EDT (4/12) 4:35 AM EDT (4/12)
Length of Visible Light 14h 14m
Length of Day
13h 16m
Waxing Gibbous, 93% of the Moon is Illuminated
Apr 12
Waxing Gibbous
Apr 15
Full
Apr 22
Last Quarter
Apr 29
New
May 6
First Quarter

Hourly Weather History & Observations

Time (EDT) Temp. Windchill Dew Point Humidity Pressure Visibility Wind Dir Wind Speed Gust Speed Precip Events Conditions
12:58 AM 48.0 °F - 47.7 °F 99% 29.99 in 4.0 mi NNE 2.3 mph - 0.14 in Rain Rain
1:33 AM 48.2 °F - 48.2 °F 100% 29.98 in 10.0 mi Calm Calm - N/A   Overcast
1:58 AM 47.1 °F - 47.1 °F 100% 29.99 in 10.0 mi SW 3.5 mph - 0.05 in   Overcast
2:29 AM 46.4 °F 44.3 °F 46.4 °F 100% 29.97 in 10.0 mi SE 4.6 mph - N/A Rain Light Rain
2:43 AM 46.4 °F - 46.4 °F 100% 29.98 in 10.0 mi SSE 2.3 mph - N/A   Overcast
2:58 AM 47.1 °F - 47.1 °F 100% 29.98 in 10.0 mi SE 2.3 mph - 0.00 in   Overcast
3:58 AM 46.8 °F - 46.8 °F 100% 30.00 in 10.0 mi West 4.6 mph - N/A   Overcast
4:58 AM 46.4 °F 43.5 °F 46.4 °F 100% 30.02 in 10.0 mi West 5.8 mph - N/A   Mostly Cloudy
5:58 AM 43.2 °F 39.7 °F 42.8 °F 99% 30.05 in 10.0 mi WNW 5.8 mph - N/A   Partly Cloudy
6:58 AM 43.5 °F - 43.3 °F 99% 30.08 in 10.0 mi West 2.3 mph - N/A   Partly Cloudy
7:58 AM 47.7 °F - 45.1 °F 91% 30.11 in 10.0 mi WNW 5.8 mph - N/A   Partly Cloudy
8:58 AM 50.5 °F - 43.9 °F 78% 30.13 in 10.0 mi WSW 5.8 mph - N/A   Clear
9:58 AM 55.4 °F - 39.9 °F 56% 30.12 in 10.0 mi SSW 3.5 mph - N/A   Clear
10:58 AM 59.5 °F - 34.9 °F 40% 30.13 in 10.0 mi SW 5.8 mph - N/A   Clear
11:58 AM 63.3 °F - 24.6 °F 23% 30.12 in 10.0 mi West 13.8 mph 23.0 mph N/A   Scattered Clouds
12:58 PM 65.1 °F - 27.1 °F 24% 30.12 in 10.0 mi WNW 12.7 mph - N/A   Mostly Cloudy
1:58 PM 67.1 °F - 26.1 °F 21% 30.09 in 10.0 mi West 19.6 mph 24.2 mph N/A   Mostly Cloudy
2:58 PM 68.2 °F - 26.2 °F 21% 30.09 in 10.0 mi West 12.7 mph 28.8 mph N/A   Scattered Clouds
3:58 PM 68.0 °F - 28.0 °F 22% 30.07 in 10.0 mi West 13.8 mph 20.7 mph N/A   Scattered Clouds
4:58 PM 68.2 °F - 25.7 °F 20% 30.08 in 10.0 mi WNW 11.5 mph 20.7 mph N/A   Scattered Clouds
5:58 PM 65.8 °F - 27.3 °F 23% 30.10 in 10.0 mi West 5.8 mph - N/A   Mostly Cloudy
6:58 PM 63.5 °F - 27.7 °F 26% 30.14 in 10.0 mi WNW 5.8 mph - N/A   Overcast
7:58 PM 57.6 °F - 29.8 °F 35% 30.15 in 10.0 mi Calm Calm - N/A   Mostly Cloudy
8:58 PM 52.2 °F - 34.7 °F 51% 30.18 in 10.0 mi SE 5.8 mph - N/A   Mostly Cloudy
9:58 PM 50.7 °F - 35.2 °F 55% 30.19 in 10.0 mi East 2.3 mph - N/A   Overcast
10:58 PM 49.6 °F - 35.4 °F 58% 30.19 in 10.0 mi North 2.3 mph - N/A   Mostly Cloudy
11:58 PM 47.5 °F - 36.1 °F 65% 30.20 in 10.0 mi North 2.3 mph - N/A   Mostly Cloudy